Location: Cactus School
(34.5700°N, 118.0931°W)
Time: 05:47:07
(UTC-08:00)

Vanguard 3 - Visible Passes

Search period start: 24 February 2018 00:00
Search period end: 06 March 2018 00:00
Orbit: 508 x 3264 km, 33.3° (Epoch: 24 February)

Date Brightness Start Highest point End Pass type
(mag) Time Alt. Az. Time Alt. Az. Time Alt. Az.
24 Feb 7.4 18:05:59 10° W 18:09:28 37° SSW 18:13:06 10° SE visible
25 Feb 8.6 19:04:49 10° WSW 19:07:15 17° SSW 19:09:56 10° SSE visible
27 Feb 8.9 18:50:14 10° SW 18:51:43 12° SSW 18:53:15 10° S visible
